Voltar ao catálogo

ECHOSTAR 23

AtivoComunicaçõesGEO
NORAD 42070·PAYLOAD·🇺🇸 United States

Lançado Mar 16, 2017 de Cape Canaveral Space Force Station

Loading…

TLE

AtualizadoSource: Space-Track

Época: Sep 14, 2026, 12:29 UTC

1 42070U 17014A   26257.52058617  .00000000  00000-0  00000-0 0  9992
2 42070   0.0212 157.6285 0002082  10.1907 263.1861  1.00269619 34811

Acompanhe ECHOSTAR 23 em tempo real com AllMySat

Download on the App Store